This is the latest recevied weather packets stored in our database for station/object WD4ITN. If no packets are shown the sender has not sent any weather packets the latest 10 day(s).
| Time | Temp. | Humidity | Pressure | Rain* | Wind** | Luminosity | Snow |
|---|---|---|---|---|---|---|---|
| 1777405097 | 22.22° C | 62% | 1014.5 hPa | 3.05 mm | - | - | - |
| 1777404797 | 21.67° C | 62% | 1014.6 hPa | 3.05 mm | - | - | - |
| 1777404514 | 21.67° C | 63% | 1014.5 hPa | 3.05 mm | - | - | - |
| 1777404191 | 21.11° C | 64% | 1014.7 hPa | 3.05 mm | - | - | - |
| 1777403913 | 21.11° C | 65% | 1014.7 hPa | 3.05 mm | - | - | - |
| 1777403608 | 20.56° C | 67% | 1014.8 hPa | 3.05 mm | - | - | - |
| 1777403303 | 20.56° C | 64% | 1015 hPa | 3.05 mm | - | - | - |
| 1777403000 | 21.11° C | 66% | 1015.1 hPa | 3.05 mm | - | - | - |
| 1777402719 | 21.11° C | 66% | 1014.9 hPa | 3.05 mm | - | - | - |
| 1777402413 | 20.56° C | 68% | 1014.9 hPa | 3.05 mm | - | - | - |
| 1777402094 | 20.56° C | 66% | 1014.8 hPa | 3.05 mm | - | - | - |
| 1777401821 | 20.56° C | 71% | 1014.7 hPa | 3.05 mm | - | - | - |
| 1777401508 | 20.56° C | 68% | 1015 hPa | 3.05 mm | - | - | - |
| 1777401206 | 20.56° C | 71% | 1014.2 hPa | 3.05 mm | - | - | - |
| 1777400897 | 20.56° C | 71% | 1014 hPa | 3.05 mm | - | - | - |
| 1777400594 | 20° C | 73% | 1014.1 hPa | 3.05 mm | - | - | - |
| 1777400312 | 19.44° C | 73% | 1014.1 hPa | 3.05 mm | - | - | - |
| 1777400000 | 18.89° C | 76% | 1014.1 hPa | 3.05 mm | - | - | - |
| 1777399707 | 18.89° C | 76% | 1014.1 hPa | 3.05 mm | - | - | - |
| 1777399405 | 18.89° C | 78% | 1014.1 hPa | 3.05 mm | - | - | - |
| 1777399099 | 18.89° C | 78% | 1014.2 hPa | 3.05 mm | - | - | - |
| 1777398798 | 18.33° C | 81% | 1014.1 hPa | 3.05 mm | - | - | - |
| 1777398496 | 18.33° C | 80% | 1014.3 hPa | 3.05 mm | - | - | - |
| 1777398200 | 18.33° C | 81% | 1014.3 hPa | 3.05 mm | - | - | - |
| 1777397897 | 17.78° C | 81% | 1014.3 hPa | 3.05 mm | - | - | - |
* Rain since midnight (hover to see other rain measurements)
** Current wind speed in m/s (hover to see current wind gust speed)